Home   Weather   Liestal   Past weeks

Flag for Switzerland Past Weather in Liestal, Basel-Land, Switzerland — Yesterday and Last 2 Weeks

41 °F


Feels Like: 41 °F
Forecast: 37 / 58 °F
Wind: No wind

Location: Bale-Mulhouse

Current Time: Oct 28, 2016 at 2:32:01 AM

Latest Report: Oct 28, 2016 at 2:00 AM

Visibility: 1 mi

Pressure: 30.54 "Hg

Humidity: 100%

Dew Point: 41 °F

Location of LiestalLocation

Past Weather in Liestal — Graph


Liestal Temperature Yesterday

Maximum temperature yesterday: 55 °F (at 3:30 PM)
Minimum temperature yesterday: 39 °F (at 11:00 PM)
Average temperature yesterday: 47 °F

High & Low Weather Summary for the Past Weeks

High66 °F (Oct 15, 5:30 PM)100% (Oct 13, 2:00 AM)30.57 "Hg (Oct 13, 2:00 AM)
Low30 °F (Oct 13, 2:00 AM)51% (Oct 22, 3:30 PM)29.62 "Hg (Oct 14, 5:30 PM)
Average50 °F86%30.07 "Hg
* Reported Oct 13 1:00 AM — Oct 28 1:00 AM, Liestal, Weather by CustomWeather, © 2016

Note: Actual official high and low records may vary slightly from our data, if they occured in-between our weather recording intervals... More about our weather records


Liestal Weather History for the Previous 24 Hours

Scroll right to see more
Time TempWeatherWind HumidityBarometerVisibility
1:00 AM
Fri, Oct 28
37 °FFog.3 mph100%30.54 "Hg2 mi
12:30 AM37 °FFog.2 mph100%30.54 "Hg1 mi
12:00 AM39 °FFog.2 mph100%30.54 "Hg1 mi
11:30 PM
Thu, Oct 27
39 °FFog.3 mph100%30.54 "Hg1 mi
11:00 PM39 °FFog.2 mph100%30.54 "Hg1 mi
10:30 PM41 °FFog.No wind93%30.54 "Hg1 mi
10:00 PM41 °FFog.2 mph93%30.54 "Hg2 mi
9:30 PM43 °FFog.2 mph93%30.54 "Hg2 mi
9:00 PM43 °FFog.1 mph93%30.54 "Hg2 mi
8:30 PM43 °FClear.3 mph93%30.54 "Hg4 mi
8:00 PM45 °FClear.3 mph93%30.54 "Hg4 mi
7:30 PM46 °FClear.3 mph93%30.54 "Hg5 mi
7:00 PM46 °FClear.2 mph93%30.54 "Hg5 mi
6:30 PM50 °FClear.3 mph82%30.51 "Hg10 mi
6:00 PM52 °FPassing clouds.5 mph82%30.51 "HgN/A
5:30 PM54 °FPassing clouds.6 mph77%30.51 "HgN/A
5:00 PM55 °FPassing clouds.6 mph72%30.51 "HgN/A
4:30 PM55 °FPassing clouds.5 mph72%30.51 "HgN/A
4:00 PM55 °FPassing clouds.5 mph72%30.51 "HgN/A
3:30 PM55 °FPassing clouds.5 mph72%30.51 "HgN/A
3:00 PM54 °FPassing clouds.5 mph77%30.51 "HgN/A
2:30 PM52 °FPassing clouds.5 mph88%30.54 "HgN/A
2:00 PM50 °FPartly sunny.3 mph88%30.54 "Hg4 mi
1:30 PM48 °FFog.3 mph94%30.54 "Hg1 mi
1:00 PM48 °FFog.3 mph94%30.57 "Hg1 mi
12:30 PM48 °FFog.3 mph94%30.57 "Hg1 mi
12:00 PM48 °FFog.3 mph94%30.57 "Hg1 mi
11:30 AM46 °FFog.3 mph100%30.57 "Hg1 mi
11:00 AM46 °FFog.3 mph100%30.57 "Hg1 mi
10:30 AM45 °FFog.3 mph100%30.54 "Hg0 mi
10:00 AM45 °FFog.3 mph100%30.54 "Hg0 mi
9:30 AM45 °FFog.5 mph100%30.54 "Hg1 mi
9:00 AM45 °FFog.5 mph100%30.51 "Hg1 mi
8:30 AM46 °FFog.2 mph100%30.51 "Hg1 mi
8:00 AM45 °FFog.3 mph100%30.48 "Hg1 mi
7:30 AM46 °FFog.5 mph100%30.48 "Hg1 mi
7:00 AM46 °FFog.5 mph100%30.48 "Hg1 mi
6:30 AM46 °FFog.5 mph93%30.48 "Hg1 mi
6:00 AM46 °FFog.3 mph100%30.48 "Hg1 mi
5:30 AM46 °FFog.5 mph100%30.45 "Hg1 mi
5:00 AM46 °FFog.6 mph100%30.45 "Hg2 mi
4:30 AM46 °FFog.7 mph100%30.45 "Hg3 mi
4:00 AM46 °FLow clouds.3 mph93%30.45 "Hg4 mi
3:30 AM46 °FMostly cloudy.6 mph93%30.45 "Hg4 mi
3:00 AM46 °FLow clouds.6 mph93%30.45 "Hg4 mi
2:30 AM48 °FMostly cloudy.6 mph94%30.45 "Hg4 mi
2:00 AM48 °FPassing clouds.6 mph94%30.45 "Hg4 mi
Weather by CustomWeather, © 2016

See weather overviewHow to use our weather pages